Weather in Belyy Gorodok

Russia / Tver Oblast     56°57′50″N   37°31′03″E
temp.,
°C
wind,
m/s
gust,
m/s
humid.,
%
clouds,
%
prec.,
mm/h
press.,
hPa
HPBL,
m
24 january, mon
mon2400:00−18ssw1110099 0.0 103511
03:00−19w11100100 0.0 103710
06:00−18ssw21100100 0.0 103629
09:00−18ssw23100100 0.1 103747
12:00−11sw249476 0.0 1035155
15:00−9ssw26945 0.0 1034234
18:00−13ssw279874 0.0 103391
21:00−14ssw389860 0.0 1032135
25 january, tue
tue2500:00−15ssw3109515 0.0 1030165
03:00−14ssw411935 0.0 1028211
06:00−14ssw311925 0.0 1025218
09:00−14ssw412905 0.0 1023250
12:00−9ssw41384100 0.0 1020355
15:00−8ssw51289100 0.1 1017491
18:00−8ssw41095100 1.4 1015464
21:00−7ssw3796100 2.8 1014347
26 january, wed
wed2600:00−7sw2496100 1.0 1013182
03:00−7wnw1597100 1.4 1013139
06:00−5nnw3109598 0.4 1013490
09:00−7nnw4109499 0.7 1015396
12:00−7n399398 0.2 1016378
15:00−8nnw379222 0.2 1017321
18:00−16nnw229963 0.0 101810
21:00−20nnw1110086 0.0 10189
27 january, thu
thu2700:00−22nw11100100 0.0 10189
03:00−23ssw11100100 0.0 10189
06:00−21s11100100 0.0 101727
09:00−19s23100100 0.0 101656
12:00−12s2492100 0.0 1014165
15:00−10sse3792100 0.0 1013294
18:00−12sse3109479 0.0 1012233
21:00−13sse3119673 0.0 1011271
28 january, fri
fri2800:00−14sse4129541 0.0 1010279
03:00−14sse4129369 0.0 1009293
06:00−12sse41393100 0.1 1007369
09:00−11sse41293100 0.1 1006396
12:00−9sse41192100 0.1 1006438
15:00−8se41191100 0.1 1005479
18:00−8se41194100 0.2 1004481
21:00−8se31094100 0.6 1005498